Regional Weather Roundup
Issued by NWS Kansas City/Pleasant Hill, MO

Home | Current Version | Previous Version | Graphics & Text | Print | Product List | Glossary Off
Versions: 1 2 3 4 5 6 7 8 9 10 11 12 13 14 15 16 17 18 19 20 21 22 23 24 25 26 27 28 29 30 31 32 33 34 35 36 37 38 39 40 41 42 43 44 45 46 47 48 49 50

000
ASUS43 KEAX 161111
RWREAX

WEATHER ROUNDUP FOR EASTERN KANSAS AND NORTHWEST MISSOURI
NATIONAL WEATHER SERVICE KANSAS CITY/PLEASANT HILL MO
600 AM CDT WED APR 16 2014

KSZ040-057-103>105-MOZ028-029-037-043-161200-
...KANSAS CITY METROPOLITAN AREA...

CITY           SKY/WX    TMP DP  RH WIND       PRES   REMARKS
K.C. INTL      CLEAR     45  24  43 S22G29    29.93F
K.C. DOWNTOWN  CLEAR     47  24  40 S14G23    29.96S
LEES SUMMIT    CLEAR     43  25  49 S14       29.98S
OLATHE - IXD   CLEAR     43  26  51 S18G29    29.95S WCI  35
OLATHE - OJC   CLEAR     40  26  57 S13       29.95S WCI  32
LAWRENCE       CLEAR     45  28  51 S15       29.92F

$$

MOZ001>008-011>017-020>025-030>033-038>040-044>046-053-054-161200-
...NORTHERN AND CENTRAL MISSOURI...

CITY           SKY/WX    TMP DP  RH WIND       PRES   REMARKS
ST. JOSEPH     CLEAR     45  26  47 S18       29.91S
MOSBY          FAIR      43  27  52 SE9       29.98S
WARRENSBURG    CLEAR    N/A N/A N/A SE17      30.02S
WHITEMAN AFB   CLEAR     41  24  49 S12       30.02F WCI  35
CLINTON        CLEAR     45  30  57 S12       30.05S
SEDALIA        FAIR      43  25  49 S16       30.05S
WARSAW         NOT AVBL
MARSHALL         N/A     43  30  61 SE13      30.05
CHILLICOTHE      N/A     42  25  50 SE12G20   30.01S
MOBERLY        CLEAR     41  21  45 S15G22    30.07S WCI  33
KIRKSVILLE     CLEAR     36  24  62 S14       30.05S WCI  27

$$

MOZ041-047>049-056>058-063>065-088>090-097-161200-
...EASTERN AND SOUTHERN MISSOURI...

CITY           SKY/WX    TMP DP  RH WIND       PRES   REMARKS
ST. LOUIS INTL PTCLDY    39  22  50 SE10G20   30.22S WCI  32
SPIRIT OF STL  CLEAR     38  21  50 SE7       30.20S WCI  33
COLUMBIA       CLEAR     37  25  61 SE13      30.10R WCI  29
JEFFERSON CITY PTCLDY    37  26  64 E7        30.13R WCI  32
MEXICO         CLEAR     34  27  75 S13G18    30.11S WCI  25
HANNIBAL       CLEAR     37  19  48 SE10      30.12S WCI  30
ROLLA          CLEAR     36  26  67 S10       30.13S WCI  28
LEBANON        PTCLDY    39  28  65 S12       30.11S WCI  32
OSAGE BEACH    PTCLDY    39  23  52 SE8       30.12R WCI  34
SPRINGFIELD    PTCLDY    40  29  64 SE16      30.07F WCI  31
BRANSON        CLEAR     37  30  75 SE10      30.12S WCI  30
NEVADA         PTCLDY    41  28  60 S13       30.04S WCI  34
JOPLIN         PTCLDY    43  26  51 S14       30.04S
WEST PLAINS    CLEAR     34  27  75 SE6       30.18R WCI  29

$$

IAZ060-094-KSZ022-034>040-054-083-096-NEZ052-066-093-161200-
...KANSAS...SOUTHEAST NEBRASKA AND IOWA...

CITY           SKY/WX    TMP DP  RH WIND       PRES   REMARKS
TOPEKA         CLEAR     48  27  44 S13G23    29.89F
MANHATTAN      CLEAR     49  25  39 S16G26    29.81F
EMPORIA        CLEAR     44  27  51 S24G36    29.88F WCI  35
CHANUTE        PTCLDY    44  29  55 S15       29.98S
WICHITA        MOCLDY    47  24  40 S22G30    29.86S
OMAHA          MOCLDY    45  28  51 S24G32    29.75F
LINCOLN        MOCLDY    50  23  34 S22G35    29.71F
FALLS CITY     PTCLDY    47  28  47 S23G31    29.82F
LAMONI         MOCLDY    39  26  59 S13G22    29.92F WCI  31
DES MOINES     CLOUDY    43  26  51 S14       29.91F

$$




USA.gov is the U.S. government's official web portal to all federal, state and local government web resources and services.